Chehalis, WA

6:32 PM PDT on June 25, 2017 (GMT -0700)
Chehalis-Centralia

Weather History for KCLS - October, 2012

Change the Weather History Date:

Tuesday, October 16, 2012

  Actual Average (KTDO) Record (KTDO)
Temperature  
Mean Temperature 50 °F -  
Max Temperature 59 °F 63 °F 77 °F (1974)
Min Temperature 41 °F 40 °F 26 °F (1999)
Degree Days  
Heating Degree Days 14    
Moisture  
Dew Point 47 °F    
Average Humidity 83    
Maximum Humidity 100    
Minimum Humidity 63    
Precipitation  
Precipitation 0.12 in - - ()
Sea Level Pressure  
Sea Level Pressure 30.07 in    
Wind  
Wind Speed 6 mph (WSW)    
Max Wind Speed 12 mph    
Max Gust Speed 18 mph    
Visibility 8 miles    
Events Rain    
Averages and records for this station are not official NWS values.
T = Trace of Precipitation, MM = Missing Value Source: NWS Daily Summary

Daily Weather History Graph

Daily Weather History Graph

Search for Another Location

Airport or City:

Trip Planner

Search our weather history database for the weather conditions in past years. The results will help you decide how hot, cold, wet, or windy it might be!

Date:

Astronomy

Oct. 16, 2012 Rise Set
Actual Time 7:31 AM PDT 6:22 PM PDT
Civil Twilight 7:01 AM PDT 6:52 PM PDT
Nautical Twilight 6:26 AM PDT 7:27 PM PDT
Astronomical Twilight 5:51 AM PDT 8:02 PM PDT
Moon 9:09 AM PDT (10/16) 7:01 PM PDT (10/16)
Length of Visible Light 11h 51m
Length of Day
10h 50m
New Moon, 2% of the Moon is Illuminated
Oct 16
New Moon
Oct 21
First Quarter
Oct 29
Full
Nov 6
Last Quarter
Nov 13
New

Hourly Weather History & Observations

Time (PDT) Temp. Windchill Dew Point Humidity Pressure Visibility Wind Dir Wind Speed Gust Speed Precip Events Conditions
12:15 AM 59.0 °F - 53.6 °F 82% 29.70 in 10.0 mi SW 9.2 mph - N/A   Unknown
12:35 AM 57.2 °F - 53.6 °F 88% 29.70 in 10.0 mi WSW 8.1 mph - N/A   Unknown
12:55 AM 57.2 °F - 53.6 °F 88% 29.70 in 10.0 mi SW 6.9 mph - N/A   Unknown
1:15 AM 57.2 °F - 53.6 °F 88% 29.71 in 10.0 mi SW 8.1 mph - N/A   Unknown
1:35 AM 57.2 °F - 53.6 °F 88% 29.73 in 10.0 mi SW 6.9 mph - N/A   Unknown
1:55 AM 57.2 °F - 53.6 °F 88% 29.74 in 10.0 mi WSW 11.5 mph 17.3 mph N/A   Unknown
2:15 AM 55.4 °F - 51.8 °F 88% 29.76 in 9.0 mi West 8.1 mph 16.1 mph N/A   Unknown
2:35 AM 55.4 °F - 51.8 °F 88% 29.78 in 10.0 mi SW 9.2 mph - N/A   Unknown
3:35 AM 53.6 °F - 50.0 °F 88% 29.80 in 9.0 mi SW 3.5 mph - N/A Rain Light Rain
3:55 AM 53.6 °F - 50.0 °F 88% 29.81 in 7.0 mi WSW 5.8 mph - N/A   Unknown
4:15 AM 53.6 °F - 50.0 °F 88% 29.82 in 7.0 mi SW 3.5 mph - N/A   Unknown
4:35 AM 53.6 °F - 48.2 °F 82% 29.83 in 10.0 mi SW 5.8 mph - N/A   Unknown
4:55 AM 53.6 °F - 50.0 °F 88% 29.84 in 5.0 mi WSW 4.6 mph - N/A   Mist
5:15 AM 53.6 °F - 50.0 °F 88% 29.86 in 10.0 mi West 8.1 mph - N/A   Unknown
5:35 AM 53.6 °F - 46.4 °F 77% 29.87 in 10.0 mi West 9.2 mph - N/A   Unknown
5:55 AM 53.6 °F - 46.4 °F 77% 29.88 in 10.0 mi West 4.6 mph - N/A   Unknown
6:15 AM 51.8 °F - 44.6 °F 76% 29.89 in 10.0 mi West 5.8 mph - N/A   Unknown
6:35 AM 51.8 °F - 44.6 °F 76% 29.91 in 10.0 mi West 3.5 mph - N/A   Unknown
6:55 AM 51.8 °F - 44.6 °F 76% 29.92 in 5.0 mi Calm Calm - N/A   Haze
7:15 AM 51.8 °F - 44.6 °F 76% 29.95 in 7.0 mi Calm Calm - N/A   Unknown
7:35 AM 51.8 °F - 44.6 °F 76% 29.97 in 8.0 mi West 4.6 mph - N/A   Unknown
7:55 AM 51.8 °F - 44.6 °F 76% 29.98 in 10.0 mi WSW 6.9 mph - N/A   Unknown
8:15 AM 50.0 °F - 44.6 °F 82% 30.00 in 10.0 mi WSW 3.5 mph - N/A   Unknown
8:35 AM 50.0 °F - 44.6 °F 82% 30.01 in 9.0 mi SW 4.6 mph - N/A   Unknown
8:55 AM 53.6 °F - 44.6 °F 72% 30.03 in 9.0 mi SW 4.6 mph - N/A   Unknown
9:15 AM 53.6 °F - 46.4 °F 77% 30.05 in 9.0 mi SSW 6.9 mph - N/A   Unknown
9:35 AM 53.6 °F - 46.4 °F 77% 30.06 in 10.0 mi SSW 4.6 mph - N/A   Unknown
9:55 AM 55.4 °F - 46.4 °F 72% 30.08 in 10.0 mi SSW 8.1 mph - N/A   Unknown
10:15 AM 53.6 °F - 46.4 °F 77% 30.10 in 9.0 mi WSW 5.8 mph - N/A   Unknown
10:35 AM 53.6 °F - 48.2 °F 82% 30.11 in 7.0 mi SW 4.6 mph - N/A   Unknown
10:55 AM 51.8 °F - 48.2 °F 88% 30.12 in 3.0 mi WSW 4.6 mph - 0.02 in Rain Light Rain
11:15 AM 50.0 °F - 46.4 °F 87% 30.13 in 4.0 mi WSW 6.9 mph - 0.01 in Rain Light Rain
11:35 AM 51.8 °F - 48.2 °F 88% 30.14 in 10.0 mi South 5.8 mph - 0.04 in   Unknown
11:55 AM 55.4 °F - 50.0 °F 82% 30.13 in 5.0 mi SE 5.8 mph - 0.04 in   Haze
12:15 PM 55.4 °F - 50.0 °F 82% 30.15 in 3.0 mi West 6.9 mph - 0.01 in Rain Light Rain
12:35 PM 53.6 °F - 48.2 °F 82% 30.16 in 9.0 mi West 3.5 mph - 0.02 in   Unknown
12:55 PM 53.6 °F - 48.2 °F 82% 30.17 in 7.0 mi SSW 5.8 mph - 0.02 in   Unknown
1:15 PM 55.4 °F - 48.2 °F 77% 30.17 in 5.0 mi SW 9.2 mph - N/A   Haze
1:35 PM 57.2 °F - 48.2 °F 72% 30.17 in 9.0 mi SSW 9.2 mph - N/A   Unknown
1:55 PM 59.0 °F - 48.2 °F 67% 30.17 in 5.0 mi SSW 9.2 mph - N/A   Haze
2:15 PM 59.0 °F - 48.2 °F 67% 30.17 in 7.0 mi WSW 9.2 mph 18.4 mph N/A   Unknown
2:35 PM 59.0 °F - 46.4 °F 63% 30.17 in 10.0 mi SSW 4.6 mph - N/A   Unknown
2:55 PM 57.2 °F - 46.4 °F 67% 30.17 in 9.0 mi WNW 5.8 mph - N/A   Unknown
3:15 PM 53.6 °F - 46.4 °F 77% 30.18 in 3.0 mi WNW 8.1 mph - 0.02 in Rain Light Rain
3:35 PM 51.8 °F - 46.4 °F 82% 30.20 in 5.0 mi West 3.5 mph - 0.03 in Rain Light Rain
3:55 PM 51.8 °F - 48.2 °F 88% 30.20 in 10.0 mi WSW 3.5 mph - 0.04 in Rain Light Rain
4:15 PM 53.6 °F - 48.2 °F 82% 30.20 in 8.0 mi SW 3.5 mph - N/A   Unknown
4:35 PM 53.6 °F - 48.2 °F 82% 30.20 in 9.0 mi SW 4.6 mph - N/A   Unknown
4:55 PM 55.4 °F - 48.2 °F 77% 30.21 in 5.0 mi SW 5.8 mph - N/A   Haze
5:15 PM 55.4 °F - 48.2 °F 77% 30.22 in 9.0 mi SW 5.8 mph - N/A   Unknown
5:35 PM 53.6 °F - 48.2 °F 82% 30.23 in 10.0 mi SW 4.6 mph - N/A   Unknown
5:55 PM 53.6 °F - 48.2 °F 82% 30.23 in 10.0 mi Calm Calm - N/A   Unknown
6:15 PM 53.6 °F - 48.2 °F 82% 30.23 in 10.0 mi Calm Calm - N/A   Unknown
6:35 PM 51.8 °F - 46.4 °F 82% 30.24 in 10.0 mi NNW 3.5 mph - N/A   Unknown
6:55 PM 51.8 °F - 46.4 °F 82% 30.25 in 8.0 mi WNW 5.8 mph - N/A   Unknown
7:15 PM 50.0 °F - 44.6 °F 82% 30.25 in 9.0 mi Calm Calm - N/A Rain Light Rain
7:35 PM 50.0 °F - 46.4 °F 87% 30.26 in 10.0 mi SSW 3.5 mph - N/A   Unknown
7:55 PM 48.2 °F - 46.4 °F 93% 30.27 in 10.0 mi Calm Calm - N/A   Unknown
8:15 PM 48.2 °F - 46.4 °F 93% 30.27 in 10.0 mi WSW 3.5 mph - N/A   Unknown
8:35 PM 48.2 °F - 46.4 °F 93% 30.28 in 9.0 mi SSW 4.6 mph - N/A   Unknown
8:55 PM 48.2 °F - 46.4 °F 93% 30.27 in 9.0 mi SW 3.5 mph - N/A   Unknown
9:15 PM 46.4 °F 45.2 °F 44.6 °F 93% 30.27 in 7.0 mi West 3.5 mph - N/A   Unknown
9:35 PM 46.4 °F 45.2 °F 44.6 °F 93% 30.28 in 10.0 mi West 3.5 mph - N/A   Unknown
9:55 PM 46.4 °F 45.2 °F 44.6 °F 93% 30.28 in 10.0 mi West 3.5 mph - N/A   Unknown
10:15 PM 44.6 °F 43.1 °F 42.8 °F 93% 30.29 in 10.0 mi SW 3.5 mph - N/A   Unknown
10:35 PM 42.8 °F - 42.8 °F 100% 30.30 in 10.0 mi Calm Calm - N/A   Unknown
10:55 PM 42.8 °F 40.1 °F 41.0 °F 93% 30.30 in 4.0 mi SSW 4.6 mph - N/A   Mist
11:15 PM 42.8 °F 40.1 °F 41.0 °F 93% 30.31 in 9.0 mi SW 4.6 mph - N/A   Unknown
11:55 PM 41.0 °F - 41.0 °F 100% 30.32 in 5.0 mi Calm Calm - N/A   Mist